Temp
4 4 4 4 5 5 5 5 5 5 5 5 5 5 5 5 5 4 5 5 5 5 6 6 6 7 7 6 7 8 7 7 8 8 9 9 11 12 12 13 13 13 13 13 13 13 14 14 14 14 13 13
3 3 3 4 4 4 4 4 4 4 4 4 4 4 4 4 4 4 4 4 5 5 5 5 5 6 6 6 6 7 7 7 7 8 8 9 9 10 11 12 12 13 13 13 13 13 13 14 14 14 13 13
3 3 3 3 3 3 4 4 4 4 4 4 4 4 4 4 4 4 4 4 4 4 5 4 5 5 5 6 5 6 7 7 7 7 7 8 9 10 10 11 12 12 12 12 12 13 13 14 14 13 13 13
2 3 3 3 3 3 3 3 3 3 3 3 3 4 4 4 4 4 4 4 4 4 4 4 4 4 5 5 5 6 6 7 7 7 7 7 8 9 9 10 10 11 12 12 12 12 13 13 13 13 13 13
2 2 3 3 3 3 3 3 4 4 4 3 3 3 3 3 3 3 3 3 3 4 4 4 4 4 4 5 5 6 6 6 6 7 7 6 6 7 9 9 9 11 11 11 11 12 12 13 13 13 13 13
1 2 2 2 3 3 3 3 4 4 4 3 3 3 3 3 3 3 3 3 3 3 3 4 4 4 4 4 4 5 6 6 6 6 7 6 6 6 7 8 8 9 10 11 11 11 12 12 13 13 13 13
1 1 1 2 2 2 3 3 3 4 3 3 3 3 3 3 3 3 3 3 3 3 3 3 3 4 4 4 4 4 5 5 6 6 6 6 6 6 6 7 7 7 8 10 11 11 11 11 12 13 13 13
1 1 1 1 1 2 2 2 2 3 3 3 3 3 2 2 3 2 2 2 2 2 2 2 3 3 4 4 4 4 4 5 5 5 6 6 7 6 6 6 6 6 7 8 9 10 10 10 11 12 13 13
0 0 0 0 0 1 1 1 2 2 3 3 2 2 2 2 2 2 2 2 2 2 2 2 2 3 3 3 3 4 4 4 4 5 5 6 6 6 6 6 5 5 6 6 7 8 9 9 10 11 12 12
-0 -0 -0 -0 -0 0 0 0 1 2 2 2 2 2 1 2 2 2 2 1 1 1 1 1 2 2 2 2 3 3 3 4 4 4 4 4 5 6 6 6 5 5 5 5 6 7 8 8 9 10 11 12
-1 -1 -1 -1 -1 -1 -0 -1 -0 1 1 1 1 1 1 1 1 1 1 1 1 1 1 1 1 2 2 2 2 3 3 3 3 3 4 4 4 5 6 6 6 5 5 5 5 6 7 7 8 9 10 11
-1 -1 -1 -1 -1 -1 -1 -1 -1 -1 0 0 0 0 1 1 1 1 1 0 0 0 1 0 1 1 1 2 2 2 3 3 3 3 3 4 4 4 5 5 6 6 5 5 5 5 6 6 7 8 9 10
-1 -1 -1 -1 -1 -1 -1 -2 -2 -2 -1 -1 -1 -0 -0 0 0 -0 -0 -0 -0 -0 -0 0 0 0 0 1 2 2 2 2 2 3 3 3 3 3 4 5 5 5 6 5 5 5 5 6 6 7 8 9
-1 -1 -1 -1 -1 -1 -2 -2 -2 -2 -2 -1 -1 -1 -1 -1 -1 -1 -1 -1 -1 -1 -1 -0 -0 -0 -0 0 1 1 1 2 2 2 3 3 3 3 3 4 4 5 5 6 5 5 5 5 6 6 7 8
-1 -1 -1 -1 -1 -1 -2 -2 -2 -2 -2 -2 -2 -2 -2 -1 -1 -2 -1 -1 -1 -1 -1 -1 -1 -1 -1 -0 0 1 1 1 1 2 2 3 3 3 3 3 3 3 4 5 5 4 4 5 5 6 6 7
-1 -1 -1 -1 -1 -1 -2 -2 -2 -2 -2 -2 -2 -2 -2 -2 -2 -2 -2 -2 -2 -2 -2 -2 -2 -1 -1 -1 -0 -0 0 0 1 1 2 2 2 2 3 3 3 3 3 5 5 5 4 4 4 5 6 6
-1 -1 -1 -1 -1 -1 -2 -2 -2 -2 -2 -2 -2 -2 -3 -3 -3 -3 -2 -3 -3 -3 -3 -3 -2 -2 -2 -1 -1 -1 -0 -0 0 1 1 1 2 2 2 2 3 3 3 4 4 5 4 4 4 5 5 6
-1 -1 -1 -1 -1 -1 -2 -2 -2 -2 -2 -2 -2 -2 -3 -3 -3 -3 -3 -3 -3 -3 -3 -3 -3 -3 -2 -2 -2 -2 -1 -1 -0 -0 0 1 1 1 2 2 2 3 3 3 4 4 4 4 4 4 5 6
-2 -2 -2 -1 -1 -1 -2 -2 -2 -2 -2 -2 -2 -2 -3 -3 -3 -3 -3 -3 -4 -4 -4 -3 -3 -3 -3 -3 -3 -2 -2 -2 -1 -1 -0 -0 0 0 1 1 2 2 3 3 3 3 3 3 4 4 5 5
-3 -3 -3 -2 -2 -2 -2 -2 -2 -2 -2 -2 -2 -2 -3 -3 -3 -3 -3 -4 -4 -4 -4 -4 -4 -4 -3 -3 -3 -3 -3 -3 -2 -2 -1 -1 -0 -0 0 1 1 1 2 2 3 3 3 3 3 3 4 5
-3 -4 -4 -3 -3 -3 -2 -2 -2 -2 -2 -2 -2 -2 -3 -3 -3 -3 -3 -3 -3 -4 -4 -4 -4 -4 -4 -4 -4 -4 -4 -4 -3 -3 -2 -2 -1 -1 -1 -0 0 1 1 1 2 3 3 3 3 3 3 4
-4 -5 -5 -4 -4 -4 -3 -3 -2 -2 -2 -2 -3 -3 -3 -3 -3 -3 -4 -3 -3 -4 -4 -4 -4 -4 -4 -4 -4 -4 -4 -4 -4 -4 -3 -3 -2 -2 -2 -1 -1 0 0 1 1 2 2 3 3 2 2 3
-5 -6 -6 -5 -5 -5 -5 -4 -3 -3 -3 -3 -3 -3 -3 -3 -4 -4 -4 -4 -4 -4 -4 -4 -4 -4 -4 -4 -4 -4 -5 -5 -5 -4 -4 -4 -4 -3 -2 -2 -2 -1 -0 0 1 1 2 2 2 3 2 2
-6 -7 -7 -7 -6 -6 -6 -6 -5 -5 -4 -4 -4 -4 -4 -4 -4 -4 -4 -4 -4 -5 -5 -5 -5 -5 -5 -5 -5 -5 -5 -5 -5 -5 -5 -5 -5 -4 -3 -3 -2 -1 -1 -0 0 1 1 2 2 3 3 3
-7 -8 -8 -8 -8 -8 -7 -7 -6 -6 -6 -5 -5 -5 -5 -5 -5 -5 -5 -5 -5 -5 -6 -6 -6 -6 -6 -6 -6 -5 -5 -6 -6 -6 -6 -5 -5 -5 -4 -3 -3 -2 -1 -1 -0 -0 1 1 2 2 3 3
-8 -8 -8 -9 -9 -9 -8 -8 -7 -7 -7 -6 -6 -6 -5 -5 -5 -6 -6 -6 -6 -6 -6 -6 -6 -6 -6 -6 -6 -6 -6 -6 -6 -6 -6 -6 -5 -5 -4 -4 -3 -3 -2 -1 -1 -1 -0 0 1 2 3 3
-8 -9 -9 -9 -9 -9 -9 -9 -8 -7 -7 -7 -7 -6 -6 -6 -6 -6 -6 -6 -7 -7 -7 -7 -7 -7 -7 -6 -6 -6 -6 -6 -6 -6 -6 -6 -5 -5 -5 -4 -4 -3 -2 -2 -1 -1 -1 -1 1 1 2 3
-9 -9 -9 -9 -9 -9 -9 -9 -9 -8 -8 -7 -7 -7 -7 -7 -7 -7 -7 -7 -7 -7 -7 -7 -7 -7 -7 -7 -7 -7 -7 -7 -7 -6 -6 -6 -6 -6 -5 -5 -4 -4 -3 -2 -1 -1 -2 -1 0 1 1 2
-10 -10 -10 -10 -10 -10 -10 -10 -9 -9 -9 -9 -9 -9 -9 -9 -8 -8 -8 -8 -8 -8 -8 -8 -8 -8 -8 -8 -8 -7 -7 -7 -7 -7 -7 -7 -6 -6 -6 -6 -5 -5 -4 -3 -2 -1 -2 -1 -1 0 1 1
-10 -10 -10 -10 -11 -11 -10 -10 -10 -10 -10 -10 -10 -10 -10 -9 -9 -9 -9 -9 -9 -9 -9 -9 -9 -9 -9 -8 -8 -8 -8 -8 -8 -8 -8 -7 -7 -7 -7 -7 -6 -6 -5 -4 -2 -2 -1 -1 -1 -0 0 -0
-10 -11 -11 -11 -11 -11 -10 -10 -11 -11 -11 -11 -11 -11 -10 -10 -10 -10 -10 -10 -10 -10 -10 -10 -9 -9 -9 -9 -9 -9 -9 -8 -8 -8 -8 -8 -8 -8 -7 -7 -8 -7 -5 -4 -3 -2 -1 -1 -1 -1 -1 -1
Height
866 865 863 861 860 858 856 854 853 851 848 846 844 842 840 838 837 836 834 833 831 830 829 828 828 827 827 825 824 822 821 822 823 822 822 822 820 820 820 821 822 822 822 823 825 826 827 827 828 829 829 829
867 866 864 863 861 860 858 856 854 852 849 847 845 843 841 840 838 837 836 834 833 832 830 830 830 829 828 827 825 824 823 822 822 821 821 822 820 819 819 819 820 821 822 822 824 825 826 827 827 827 828 828
869 867 866 864 862 861 859 857 855 852 851 849 847 845 843 842 840 838 837 836 835 833 832 831 830 830 829 827 826 825 824 823 822 820 820 821 820 820 819 819 820 820 821 822 823 823 825 825 826 827 827 827
871 869 867 865 863 861 859 857 855 854 852 850 848 847 845 843 841 839 838 837 836 834 833 832 832 832 830 829 827 826 826 825 823 822 821 820 821 821 820 819 819 819 820 822 822 822 823 824 825 826 826 827
872 870 868 866 864 862 860 858 856 854 852 850 849 848 846 844 843 841 840 838 837 836 834 833 833 832 831 830 828 827 826 825 823 823 822 821 821 821 820 819 818 818 819 820 821 822 822 823 824 825 825 826
873 871 869 867 865 863 861 859 857 855 853 851 850 849 847 845 844 843 842 840 838 837 835 834 833 832 831 831 830 828 826 825 824 824 824 823 822 822 820 818 817 818 818 818 819 821 822 822 823 824 825 825
874 872 870 868 866 864 862 860 858 856 855 853 851 850 848 846 845 844 843 841 840 838 837 835 834 832 832 831 830 829 827 826 826 825 825 824 824 824 820 817 818 818 818 818 818 819 821 821 822 823 824 824
874 873 871 869 867 865 863 861 859 857 855 853 852 851 849 847 845 844 843 842 841 839 838 836 835 834 832 831 830 829 828 827 827 826 825 824 825 825 822 819 818 818 818 818 817 818 819 820 822 822 823 823
874 873 871 869 868 866 864 862 860 858 856 854 853 851 850 848 846 845 844 843 841 840 839 837 836 835 833 832 831 829 828 827 827 826 825 824 824 824 823 820 819 819 819 818 818 817 817 819 821 822 822 822
874 872 871 869 868 867 865 863 861 859 857 855 853 852 850 848 847 845 844 843 842 840 839 838 837 836 834 833 832 831 829 828 827 827 826 825 825 824 822 821 821 820 820 819 818 817 817 817 819 820 821 822
873 872 870 869 868 867 865 864 862 859 857 855 854 852 850 849 847 845 844 843 841 840 839 838 838 837 835 834 833 832 831 829 829 828 827 827 826 824 822 822 822 821 821 820 819 817 817 817 817 818 820 821
872 871 870 869 867 866 865 864 862 860 858 856 854 853 851 849 847 846 844 843 842 841 840 839 838 837 836 835 834 832 831 830 830 829 828 828 827 824 823 822 821 821 821 821 819 817 817 817 817 817 818 819
872 870 869 868 866 865 864 863 862 860 859 856 855 853 851 850 848 846 845 843 842 841 840 839 838 837 837 836 835 833 832 831 830 829 828 827 826 825 824 822 821 821 821 821 819 818 817 817 817 817 818 818
871 869 868 867 866 864 863 862 861 859 858 857 855 853 852 850 849 847 845 844 842 841 840 840 839 838 837 836 835 834 832 831 829 828 828 826 825 824 824 823 822 821 821 821 819 817 816 817 818 818 817 817
869 868 867 866 864 863 862 861 860 858 857 856 855 853 852 851 849 848 846 844 843 842 841 840 839 838 837 836 835 834 833 831 830 828 827 826 825 824 824 823 822 822 821 819 818 816 816 817 817 817 817 816
868 867 865 864 863 862 861 860 859 858 856 855 854 853 852 851 850 848 846 845 843 842 841 840 839 838 837 836 835 834 832 831 830 828 827 826 825 825 824 822 821 821 820 818 816 815 815 816 816 817 816 816
867 865 864 862 861 860 859 859 858 856 855 854 853 852 851 850 849 848 847 845 844 843 841 840 839 838 837 836 835 833 832 831 829 828 827 826 825 824 823 822 821 820 819 818 816 815 816 816 816 816 816 815
867 865 863 861 859 859 858 857 856 855 854 853 852 851 850 849 849 848 847 845 845 844 842 841 839 838 836 835 834 833 832 830 829 828 827 826 825 824 823 821 820 820 819 818 817 816 816 816 816 816 815 815
866 864 862 860 859 857 856 855 854 853 852 851 850 850 849 848 847 846 846 845 845 844 842 841 839 838 837 835 834 833 832 830 829 828 827 826 825 823 822 821 820 820 819 818 817 816 816 815 816 816 815 814
864 863 861 860 859 857 855 854 853 852 851 850 849 848 848 847 846 845 844 844 843 843 842 841 840 838 837 835 834 832 831 830 829 828 826 826 825 823 822 821 820 819 819 818 817 817 816 815 815 816 815 814
863 862 861 859 858 856 855 853 852 851 850 849 848 848 847 846 845 844 843 843 842 842 841 840 839 839 837 835 833 832 830 829 829 828 826 825 825 823 822 821 819 818 818 817 816 816 816 815 814 814 814 813
862 861 859 858 856 855 854 852 851 851 850 848 847 847 846 845 844 844 843 842 841 840 840 839 839 838 837 835 833 832 830 829 828 828 826 825 824 823 822 820 819 818 817 816 815 814 814 814 813 813 813 812
861 859 858 856 854 853 852 851 851 851 850 848 846 845 845 844 843 843 842 841 840 840 839 839 838 837 836 835 834 832 831 829 828 827 826 825 823 822 821 820 819 818 817 815 813 812 811 810 810 810 811 810
860 858 857 856 854 853 852 850 850 849 848 846 844 843 843 842 842 841 841 840 839 839 839 838 837 836 835 834 834 833 831 830 829 828 826 825 824 822 820 819 819 818 816 814 812 810 809 808 808 808 808 808
860 859 858 857 856 855 853 852 850 848 847 845 843 842 841 840 840 840 839 838 838 838 837 837 836 835 833 833 833 832 831 831 830 829 827 825 824 822 821 819 818 818 817 814 812 810 808 806 805 805 805 805
859 859 859 858 857 856 854 852 851 849 847 845 843 842 840 839 839 838 838 837 836 836 836 835 834 833 832 832 831 831 830 830 829 828 827 825 823 822 820 819 818 819 818 816 814 812 809 805 803 802 802 801
859 858 858 857 856 855 853 851 850 848 846 844 843 841 839 838 837 837 836 836 835 835 834 834 833 832 832 831 830 829 828 828 828 827 826 825 823 821 819 817 817 818 818 817 815 815 813 808 804 801 799 798
859 857 856 855 854 853 852 850 848 846 844 843 841 839 838 837 836 836 835 835 834 834 833 832 832 831 830 830 829 828 827 826 826 826 825 824 823 821 819 817 815 816 817 816 816 816 813 810 808 804 799 797
858 856 855 853 852 851 850 848 846 844 842 841 840 838 837 836 835 835 834 834 833 832 831 831 830 829 829 828 828 827 827 825 825 824 824 823 822 821 820 817 815 814 814 814 814 814 812 811 810 805 801 799
857 855 854 853 852 850 848 846 845 843 842 840 839 838 836 835 835 834 833 832 832 831 830 829 829 828 827 827 827 826 825 824 823 823 822 822 821 820 819 818 816 813 812 812 811 810 809 810 809 806 804 804
856 855 854 853 852 851 849 847 845 844 842 840 839 837 836 834 833 833 832 831 830 829 829 828 827 827 826 825 825 824 823 822 821 821 820 820 819 818 818 817 815 813 812 810 808 807 806 805 806 806 806 806
Wind_Speed
32 32 32 30 30 30 29 29 29 29 29 29 29 28 27 27 27 26 25 23 23 23 23 21 21 21 20 22 18 16 22 23 23 22 22 20 9 1 4 6 8 10 13 17 17 15 14 12 13 13 13 12
32 32 31 29 29 30 29 28 29 29 29 29 29 29 28 28 27 28 27 26 23 23 23 22 21 21 21 22 21 18 19 22 24 22 20 21 14 7 1 5 6 9 12 15 18 16 15 13 13 14 14 13
32 31 31 29 28 29 29 28 28 28 28 28 29 30 30 28 27 28 28 27 26 24 23 23 23 23 21 20 22 20 17 20 22 22 21 20 15 9 5 1 4 7 10 13 18 18 17 14 13 15 14 13
31 31 31 30 28 29 29 29 27 25 26 27 28 29 30 29 27 28 29 28 28 26 24 23 24 23 23 21 21 19 18 20 20 20 21 20 17 12 8 4 0 4 8 12 18 19 17 16 14 15 15 13
29 30 31 31 29 29 29 29 28 24 24 26 27 27 30 30 28 27 27 28 28 28 26 24 24 23 23 22 22 19 17 19 20 20 19 19 19 16 11 7 5 1 5 9 15 19 18 17 16 16 16 15
27 29 30 31 30 28 28 29 28 24 23 24 25 25 28 28 27 26 25 26 27 27 27 25 25 24 22 22 23 21 18 18 19 19 17 18 20 17 13 11 11 7 1 4 10 16 19 18 17 17 16 15
25 27 29 30 29 27 26 28 27 24 21 21 23 24 25 26 26 24 23 23 24 25 26 25 25 24 23 23 23 23 21 18 18 18 16 17 19 20 16 14 15 15 10 1 5 9 17 19 16 17 16 15
23 25 27 28 28 26 24 25 26 23 21 19 21 23 23 24 24 22 21 22 22 23 25 25 25 24 24 24 24 23 22 20 20 19 17 16 17 20 19 17 18 18 16 9 2 2 8 17 18 17 17 16
22 23 25 26 26 26 23 23 24 21 20 18 18 22 23 22 22 21 21 22 21 22 22 23 24 24 24 25 25 24 23 22 22 21 20 19 17 19 20 20 19 19 19 16 10 6 4 8 18 18 16 17
22 22 24 24 24 24 21 22 24 20 18 17 17 20 22 21 21 20 21 21 21 21 21 21 23 22 23 24 24 23 23 23 23 23 22 22 20 18 19 20 19 19 20 19 15 12 10 5 11 18 16 16
22 22 22 23 22 23 20 20 23 21 17 16 16 18 20 20 20 21 20 20 20 20 20 20 21 20 21 21 21 22 23 23 22 22 23 23 22 18 18 19 19 19 20 19 17 15 14 13 6 11 15 15
21 21 22 22 22 22 20 18 21 20 17 16 17 18 17 17 19 19 19 18 18 19 18 19 19 19 20 19 19 21 22 23 22 21 22 22 22 20 18 18 19 20 21 20 17 16 17 18 14 5 7 12
21 22 22 22 21 21 20 19 20 20 18 17 18 18 16 16 17 18 18 18 17 18 18 18 18 18 20 18 17 20 21 22 23 21 20 20 21 21 20 18 18 19 21 21 17 16 17 18 18 12 6 7
20 21 21 21 21 20 20 20 20 20 19 18 18 18 17 15 16 18 17 18 18 19 19 19 19 18 19 18 17 20 21 21 22 22 20 20 21 21 21 20 18 17 19 21 19 16 16 17 18 16 13 8
19 19 20 20 20 20 20 20 20 20 20 18 17 17 18 16 17 18 18 18 19 21 22 21 20 18 18 18 17 20 22 21 20 21 20 19 20 21 21 22 21 18 17 19 20 18 17 17 18 17 17 14
18 18 19 20 20 21 20 19 19 19 19 18 16 16 16 16 17 19 19 19 21 23 24 23 22 20 19 18 18 21 22 22 20 19 20 18 19 20 20 21 22 21 19 18 19 19 18 18 19 19 18 18
19 20 22 21 20 20 19 18 19 18 18 18 17 15 15 16 16 17 19 20 22 24 24 23 23 22 20 20 20 20 20 21 21 20 19 18 19 21 21 21 21 21 21 20 18 18 17 18 20 21 20 21
22 25 27 24 21 20 19 18 18 15 15 17 16 16 16 16 14 15 18 18 21 25 23 22 23 23 22 21 22 22 21 21 21 20 20 19 21 22 22 23 22 21 22 22 20 19 17 17 19 21 22 21
26 28 29 25 23 22 21 19 17 14 13 14 15 16 15 15 15 16 16 16 21 23 20 20 22 22 23 23 23 23 22 21 20 20 20 20 22 24 23 23 23 22 22 22 22 21 19 18 18 20 22 22
30 29 29 26 23 23 24 23 18 14 13 13 12 13 13 15 16 15 14 17 23 21 17 18 20 21 22 23 24 24 23 22 22 22 22 20 21 24 24 24 24 24 23 22 22 22 20 19 18 20 21 22
30 28 27 25 24 23 23 24 22 17 15 13 11 12 14 15 13 13 16 21 23 20 16 17 18 19 21 22 23 24 25 24 24 24 24 23 20 22 25 25 26 26 25 25 24 22 21 20 19 20 20 22
26 25 25 24 25 24 23 22 20 17 14 11 11 14 14 12 12 16 19 21 23 22 19 17 16 17 19 22 24 26 27 27 27 26 27 28 25 23 25 26 27 27 26 26 26 25 23 21 20 21 22 23
25 25 26 26 27 27 26 24 21 16 13 13 13 13 13 13 15 18 19 19 21 21 19 18 18 17 18 22 25 27 29 31 31 30 30 31 29 27 27 26 26 27 27 27 26 26 26 25 24 24 24 26
23 25 26 27 27 27 28 27 25 23 21 19 16 14 14 16 17 18 19 18 17 18 18 19 20 20 21 22 23 26 28 29 30 31 32 32 31 30 29 28 27 25 26 27 28 28 28 26 25 26 27 28
21 24 24 25 25 26 27 27 26 26 25 23 19 17 15 16 17 18 18 18 18 20 21 22 23 23 24 24 24 24 25 26 28 30 31 30 30 30 28 28 26 24 25 25 23 22 25 27 27 26 26 28
21 24 23 23 24 24 27 26 25 25 26 25 23 20 17 17 18 19 19 20 21 23 24 25 26 26 26 27 26 26 26 26 26 29 29 29 29 29 27 26 25 24 23 20 16 15 16 20 24 24 23 25
23 24 23 25 25 26 27 26 25 24 24 25 23 22 21 20 21 22 22 23 24 25 25 26 26 26 26 26 25 25 26 25 24 26 27 27 27 27 27 26 25 23 21 19 18 14 9 8 11 14 15 18
24 24 24 26 27 28 28 25 23 22 22 22 22 22 22 22 21 22 22 23 24 24 25 25 25 25 25 24 24 23 23 22 21 21 22 23 23 23 24 24 25 24 23 23 18 9 5 4 4 6 7 10
25 24 24 24 24 26 26 24 21 19 20 21 21 21 22 22 21 22 22 23 23 24 25 26 25 25 25 25 25 23 23 23 22 21 21 22 23 22 22 22 24 25 24 24 22 15 8 4 3 4 5 8
24 23 22 21 22 22 22 21 19 20 22 24 24 23 25 25 24 25 25 26 25 25 25 26 25 25 25 25 25 24 24 25 25 25 24 24 24 24 24 23 22 24 24 24 25 25 21 14 10 8 9 7
22 20 19 19 20 19 18 17 19 22 24 24 25 25 27 27 27 26 26 25 24 23 23 24 24 25 25 26 26 25 25 25 25 25 25 24 25 25 26 24 21 21 23 23 24 27 27 25 21 18 13 7
Wind_Direction
20 17 17 17 16 16 15 15 15 16 17 20 22 22 24 26 29 29 26 25 23 22 16 15 19 16 15 15 21 38 35 27 21 23 22 18 31 111 215 215 232 226 209 203 197 190 182 172 168 162 156 153
19 16 17 18 16 15 15 14 13 14 15 17 19 20 21 22 25 26 26 26 25 25 23 18 18 18 16 13 11 12 20 22 21 25 22 18 30 45 74 189 209 223 215 205 200 195 186 178 173 170 161 159
17 15 16 19 16 14 15 14 12 11 13 14 15 14 16 20 22 21 20 23 24 25 26 23 21 18 13 12 11 7 6 8 14 23 23 19 25 34 32 141 192 213 220 209 201 197 188 183 180 178 172 167
14 14 15 19 16 13 14 15 14 13 15 15 14 8 7 14 20 21 16 16 18 20 25 23 21 19 15 10 8 7 6 5 6 11 17 20 21 24 34 38 84 198 211 210 205 202 191 186 187 183 180 175
11 11 12 15 14 11 12 13 15 17 22 21 15 6 2 7 15 19 16 14 13 12 17 19 18 17 17 15 9 4 2 4 4 5 8 14 14 16 28 39 34 126 197 213 214 212 200 189 191 189 184 180
8 8 8 10 11 9 8 10 12 16 22 23 19 8 360 2 8 15 14 13 12 9 10 12 13 14 15 15 13 8 3 0 1 3 3 3 5 8 18 29 26 28 49 218 217 216 212 200 192 194 191 185
6 4 4 4 6 6 4 7 9 11 18 20 20 11 0 359 1 8 11 10 12 10 7 6 8 12 14 13 14 12 9 5 360 0 359 356 354 356 8 20 17 11 13 359 215 222 221 214 203 198 197 191
2 359 360 359 1 3 360 1 4 6 11 14 17 12 3 358 357 0 5 5 10 10 5 4 3 8 12 10 9 10 10 9 3 360 355 350 345 346 356 11 12 3 1 3 346 289 235 226 219 208 202 197
358 354 355 356 356 360 358 354 358 2 5 11 12 9 1 355 354 355 357 0 5 7 3 2 0 5 10 5 3 6 8 7 2 359 357 352 344 342 347 356 3 360 355 354 354 359 347 238 227 219 210 204
352 352 351 353 351 355 356 347 351 359 0 7 8 0 355 351 352 351 353 357 1 2 359 359 358 2 6 2 1 3 5 4 0 355 354 354 350 345 343 345 347 350 350 349 349 349 2 349 238 227 221 211
346 348 346 347 346 350 354 341 343 354 356 360 0 355 351 348 350 351 353 356 358 357 355 355 357 0 2 359 360 2 1 0 358 352 348 349 351 350 344 341 337 336 339 344 351 348 349 356 319 234 229 224
339 341 340 340 341 343 348 339 338 348 350 351 352 351 350 347 348 351 353 354 355 352 351 353 355 359 358 356 358 359 357 356 355 348 344 344 346 350 347 341 335 330 330 335 348 353 350 349 343 300 236 228
332 334 333 333 336 338 341 339 337 341 343 345 344 345 349 349 350 351 350 348 349 348 348 350 352 357 356 353 354 355 353 350 349 345 341 340 341 345 344 342 338 329 325 329 338 346 348 347 339 329 301 237
324 328 328 327 329 331 336 338 335 333 337 342 339 339 345 349 353 351 347 345 346 345 344 344 345 351 353 350 349 349 347 343 342 341 338 335 338 340 338 338 338 330 321 322 331 336 336 340 336 325 316 289
315 321 322 321 321 323 327 329 330 328 329 337 336 336 341 345 351 349 344 344 344 345 344 341 341 343 347 347 345 342 338 337 338 337 334 331 335 338 333 330 331 329 320 315 322 331 328 324 325 322 317 309
310 317 316 314 312 310 314 320 324 323 323 329 330 332 340 343 348 345 340 341 341 344 344 342 340 337 339 342 341 339 335 333 332 331 329 325 327 332 330 326 324 322 319 313 312 321 326 317 313 314 312 310
307 313 310 306 304 300 302 312 317 317 318 320 322 324 331 338 344 340 336 337 339 343 344 341 339 336 335 335 334 337 337 333 329 328 327 324 324 326 326 324 324 320 314 314 310 308 316 315 307 305 304 304
323 324 316 302 297 296 293 303 308 309 313 313 314 313 318 331 337 331 329 333 337 342 344 340 338 337 335 334 332 333 335 335 332 327 325 324 324 324 323 322 323 322 313 312 312 303 302 309 307 303 301 298
341 340 333 314 299 294 290 297 301 301 309 310 310 309 316 330 332 327 326 333 338 340 341 338 337 337 336 336 335 333 332 334 334 330 325 323 324 323 321 319 318 320 316 311 309 306 299 299 305 304 300 297
341 340 341 332 320 309 297 293 293 295 301 303 309 312 323 331 329 327 329 338 339 338 337 334 334 336 337 337 335 334 334 334 335 334 329 324 324 324 321 318 316 315 317 313 308 307 301 294 298 301 298 297
340 340 341 340 339 334 320 303 291 290 296 299 312 323 327 326 326 330 333 339 338 332 328 326 330 335 335 334 334 335 337 337 336 334 331 327 324 324 322 318 315 314 314 314 310 306 302 295 293 294 294 294
344 345 345 343 341 342 344 331 306 292 293 301 319 330 330 325 329 334 334 338 335 325 316 318 328 333 328 325 328 331 332 334 333 331 329 326 321 319 321 319 316 314 311 310 309 304 299 296 291 288 289 290
347 348 349 347 343 341 345 347 337 327 323 322 324 325 326 327 333 336 335 339 339 329 319 322 330 329 323 320 320 322 324 326 328 327 325 323 320 315 314 314 314 313 311 308 306 302 298 294 291 287 285 287
353 354 353 349 348 345 342 342 340 339 341 341 340 334 327 326 330 334 335 338 341 337 332 333 335 333 330 327 323 320 320 322 323 322 319 316 315 313 310 309 310 313 313 309 304 301 299 295 290 285 283 282
360 358 355 350 346 342 339 337 335 334 336 339 342 342 337 333 333 333 334 335 333 332 331 331 331 330 331 330 328 324 320 317 317 317 315 312 310 309 308 306 306 311 313 310 307 305 303 299 292 285 281 278
355 355 350 344 340 336 332 330 329 328 329 330 332 336 336 335 333 330 329 329 328 327 327 327 327 326 325 324 323 321 316 312 313 315 313 309 306 305 305 303 302 306 308 303 300 305 307 303 297 291 284 278
351 350 343 338 335 334 330 325 321 320 322 325 328 330 331 329 327 325 324 324 325 324 324 325 326 325 325 323 322 320 316 312 312 313 311 307 303 302 303 302 301 303 301 293 290 297 296 292 298 298 289 278
347 343 339 335 330 328 327 324 320 319 324 328 330 331 331 331 329 325 324 323 323 323 323 323 323 324 323 322 322 321 317 314 314 314 313 312 309 309 308 304 301 300 297 290 285 280 267 280 295 282 285 291
342 340 338 337 333 330 327 326 328 333 339 339 338 336 333 330 326 323 321 319 318 318 319 318 318 318 317 316 316 316 314 311 311 311 311 312 311 311 311 310 306 298 294 289 279 264 250 275 293 257 305 323
339 339 340 340 338 332 324 328 336 339 339 337 334 332 328 324 321 319 317 316 316 316 315 314 314 314 313 312 310 311 310 308 307 307 308 309 308 307 306 310 310 300 294 291 282 272 261 255 255 272 309 324
337 338 340 339 335 325 319 327 331 329 329 329 327 325 323 321 319 318 317 316 316 315 314 313 312 311 310 309 308 307 306 305 304 303 304 304 304 304 302 305 309 304 299 294 286 279 271 265 263 269 280 275